Location: Bismarck
(46.7731°N, 100.8200°W)
Time: 17:29:28
(UTC-05:00)

Landsat 7 - Visible Passes

Search period start: 23 May 2017 00:00
Search period end: 02 June 2017 00:00
Orbit: 701 x 703 km, 98.2° (Epoch: 22 May)

Date Brightness Start Highest point End Pass type
(mag) Time Alt. Az. Time Alt. Az. Time Alt. Az.
23 May 4.0 23:00:33 20° SE 23:03:44 60° ENE 23:08:26 10° N visible
24 May 6.0 00:39:26 12° SW 00:41:53 17° W 00:45:01 10° NW visible
24 May 5.5 22:05:38 10° ESE 22:09:07 21° ENE 22:12:38 10° NNE visible
24 May 4.3 23:43:46 24° S 23:46:29 55° W 23:51:11 10° NNW visible
25 May 4.3 22:48:05 17° SE 22:51:33 47° ENE 22:56:07 10° N visible
26 May 5.7 00:26:59 15° SW 00:29:32 22° W 00:33:15 10° NW visible
26 May 3.9 23:31:18 23° S 23:34:15 72° WSW 23:39:02 10° NNW visible
27 May 4.7 22:35:39 13° SE 22:39:24 36° ENE 22:43:47 10° N visible
28 May 5.3 00:14:31 17° SW 00:17:12 28° W 00:21:20 10° NW visible
28 May 3.8 23:18:51 21° SSE 23:22:02 88° ENE 23:26:49 10° NNW visible
29 May 6.3 00:58:51 10° WSW 01:00:26 11° W 01:02:02 10° WNW visible
29 May 5.0 22:23:13 10° SE 22:27:17 29° ENE 22:31:22 10° N visible
30 May 4.9 00:02:05 19° SSW 00:04:54 37° W 00:09:20 10° NNW visible
30 May 3.9 23:06:25 19° SSE 23:09:50 69° ENE 23:14:35 10° N visible
31 May 6.1 00:45:19 10° SW 00:48:04 15° W 00:50:49 10° NW visible
31 May 5.3 22:11:28 10° ESE 22:15:11 23° ENE 22:18:54 10° NNE visible
31 May 4.5 23:49:38 20° SSW 23:52:38 48° W 23:57:15 10° NNW visible
01 Jun 4.2 22:53:58 16° SE 22:57:39 53° ENE 23:02:18 10° N visible
